Vertical_Velocity
2 -0 1 6 10 -7 -6 -11 2 0 -1 -13 19 6 2 -14 -3 -4 -0 -3 0 0 -0 -0 -0 -0 1 -2 -1 0 -0 -1 -0 -0 -0 -1 0 -1 0 1 -0 -0 0 -1 -1 -0 -0 -1 -0
0 5 4 4 1 -11 -4 1 -2 7 1 5 -1 14 6 -8 -1 2 4 3 1 1 -1 0 -1 -1 -0 0 -1 -0 -0 0 -1 0 0 0 -0 -1 -1 -0 0 0 0 -0 -0 -0 -1 0 0
2 4 3 6 3 -15 -2 -2 8 1 1 -2 -19 18 3 4 -1 1 -0 -0 -1 2 2 1 -0 -1 -1 -1 1 -1 -0 -0 -1 -0 1 1 -0 0 -1 -0 -1 -0 0 -1 -0 1 0 0 -0
2 1 1 -5 -4 2 -5 7 12 -0 -1 -5 20 6 1 -2 7 3 -1 0 -1 1 1 -0 1 -0 -1 -0 1 -1 -1 0 -1 -0 -0 2 -0 -1 -0 -1 -0 -0 0 -1 -1 0 -0 -1 0
1 1 1 1 -8 3 -1 9 5 4 2 9 1 -7 16 5 26 5 3 1 1 1 2 1 0 1 -1 -0 1 -0 -1 -1 -2 -1 -0 1 1 1 -1 -0 -0 -1 -0 -0 0 -1 -1 -1 -1
-2 3 -5 -4 -10 7 -6 9 4 10 -7 14 -11 1 22 18 8 13 5 5 2 2 1 1 0 -1 -1 -1 -1 -0 -0 -1 -2 -1 -2 -0 0 1 0 -0 -0 -1 -1 0 -0 -0 0 0 0
-0 3 -8 -3 -10 6 -8 17 -8 11 -5 0 16 0 -5 8 17 -1 -2 3 2 -0 3 1 1 1 -1 -0 -2 -1 -1 -2 -2 -2 -1 -1 -0 -0 -1 -1 -1 -0 -0 -0 -0 -1 -0 -1 0
1 -5 1 -5 -3 -12 1 13 11 4 -5 8 10 -26 -15 24 0 20 1 33 3 0 2 0 1 0 -1 -0 -0 -0 -1 -0 -1 -2 -2 -1 -0 -0 -0 -1 -1 -1 -0 -2 -1 -0 -0 1 -1
4 -8 -8 -3 -6 -5 13 -1 12 8 -3 -1 -1 -5 11 13 5 2 8 6 -1 2 4 6 1 2 1 1 1 2 -0 -1 0 -0 -1 -1 -0 -1 0 -0 0 -0 -0 -0 -0 -1 -1 -1 1
5 -6 -5 18 10 2 13 3 10 12 4 -2 -5 1 -0 -13 -1 3 11 3 7 1 7 6 6 2 2 4 2 1 0 0 1 0 -0 -1 -0 -1 -1 -1 -1 -1 -1 -0 0 1 1 -1 -1
9 -20 9 -0 -0 5 2 6 1 2 -1 -2 4 10 -2 -12 -14 -1 9 10 19 9 6 7 2 1 2 1 3 1 0 -2 -0 -1 1 0 -0 1 0 -0 0 -0 1 0 -0 1 0 1 1
-13 -6 8 4 1 3 -5 13 -2 -7 1 7 13 3 -5 5 -10 5 1 24 12 12 4 7 4 3 -1 1 -0 0 1 -0 -1 -1 0 -0 -1 -0 1 0 1 0 0 -0 0 -0 0 -1 -0
-13 11 -2 2 0 -4 13 0 -17 -18 20 6 10 -3 2 9 1 -9 10 10 -4 10 26 10 18 10 3 1 5 2 2 1 1 -0 -1 -0 -1 -0 -0 -0 0 0 -0 1 0 -0 0 0 -0
3 3 -2 2 7 5 0 6 -11 12 7 3 1 3 1 -2 6 -13 -12 3 3 5 6 28 17 6 -6 -5 3 0 -3 -1 0 0 0 2 0 1 -0 -1 -1 -0 -1 -0 -1 -1 -1 -2 -0
-1 -9 0 -9 2 -2 0 -3 -19 39 2 -1 13 -2 11 1 -5 -2 -9 -1 6 3 9 -0 4 17 9 11 -1 -2 -1 -0 1 -2 -2 -2 -2 -1 -0 0 1 0 -0 0 0 -0 -0 -0 -1
-1 -2 -8 3 -2 3 -2 1 6 43 5 2 0 15 -2 -4 -4 4 0 3 0 5 -6 -4 16 3 2 5 -4 -4 1 -0 -3 -4 -4 -1 -2 -0 1 -0 -0 1 0 -1 0 0 -0 0 -0
-2 -2 3 2 1 13 -14 21 -12 19 1 6 6 0 18 20 11 10 8 -13 -5 -6 4 -1 1 5 10 -3 10 9 -0 -3 9 0 -3 -1 -4 0 -1 -0 -0 1 1 0 -1 -1 -0 -0 -0
-1 1 4 -4 -11 -0 -3 49 -6 1 1 4 7 -1 6 8 15 13 -0 4 21 -5 -11 -4 -15 4 1 2 5 24 3 1 1 10 -4 1 0 -1 -2 -3 -1 -1 -1 0 0 -2 -2 -0 -1
1 1 27 3 -5 7 17 7 4 20 -0 2 11 8 -2 -0 10 19 10 11 16 12 7 -5 -4 4 13 11 -1 2 24 1 4 11 21 1 -1 -0 0 -3 -1 -2 -3 -3 -1 -1 -1 -0 0
14 -8 11 1 6 7 -9 9 10 6 -3 3 -0 1 -1 -9 -4 5 5 -1 24 -5 14 26 1 -6 23 36 41 14 -4 3 13 -2 12 4 5 -3 -4 -0 -0 1 0 -1 -0 1 -2 -2 -3
-2 -7 3 5 4 -1 2 7 -2 -1 -1 1 0 2 0 3 -3 -1 -2 2 13 4 6 -1 -10 -5 -0 0 8 11 6 9 11 37 -11 4 2 2 3 -2 11 4 6 -3 5 2 -1 -1 -1
2 2 5 5 -0 -0 7 3 1 2 1 2 -0 -2 4 8 10 4 1 1 3 5 5 -3 -4 -4 2 -5 1 91 21 23 14 21 8 19 24 10 7 5 5 5 3 1 3 6 2 1 -2
-0 8 14 -1 -1 1 7 3 17 1 3 14 10 7 2 2 1 2 -1 3 6 -1 -7 -7 2 -8 -6 -9 -10 6 3 14 -0 15 -1 -2 6 5 10 13 11 10 14 8 2 4 4 5 5
2 -0 2 7 -6 -2 5 2 5 -8 -10 -13 -10 -3 4 13 6 -0 -2 1 -5 -6 -5 -8 -2 -5 -6 1 4 -5 -4 0 10 1 15 -3 2 0 3 2 22 35 7 20 3 -4 7 14 13
1 -4 -3 3 -3 -1 -0 -6 0 6 6 -5 -2 4 4 10 4 -2 -2 -5 1 2 0 -5 3 1 1 -0 -2 -4 -1 0 -1 -1 -1 -3 5 4 4 7 7 18 27 19 1 -1 0 9 6
-3 3 -1 -11 -5 -10 -1 9 6 -1 1 4 -0 -4 2 3 4 2 -5 -2 0 -5 -1 -1 -2 -1 2 -1 -2 1 5 -2 -1 -1 6 -3 5 19 -2 13 3 -2 1 2 -1 -5 -3 0 -1
5 0 0 -5 -8 1 5 0 -1 -3 8 2 -12 -4 4 1 -3 -0 2 -2 -0 -1 -1 -0 -1 -7 0 1 6 -1 -3 -3 -0 5 3 0 -1 4 9 9 2 -5 -4 -7 -4 -3 -4 -5 -6
-3 -0 -5 6 4 -1 4 2 -0 1 -4 6 8 7 2 -3 3 -1 0 1 2 5 1 1 0 -1 -5 -5 -0 3 0 3 4 3 -1 -1 -12 -6 -0 -3 -4 -7 1 -5 -2 -4 -2 1 -3
-2 -3 3 -1 -5 -3 -1 -1 -1 2 -2 -1 1 3 0 -0 1 -3 -2 -2 -1 -2 -1 0 -2 1 -3 -2 1 -2 -3 -2 1 -2 -2 -2 -2 3 2 -5 -7 -4 -1 -4 2 -2 2 -2 -0
4 4 -2 -4 -1 1 1 -2 -10 -9 -11 -7 3 3 1 -1 1 -1 2 1 -0 1 2 -0 0 4 5 6 -0 -1 -3 -5 -4 -4 -0 -0 -0 -0 -2 -2 -5 -3 -1 -1 0 -1 1 0 -3
Height
5732 5738 5741 5745 5749 5744 5753 5767 5783 5795 5801 5807 5814 5813 5820 5826 5834 5843 5847 5850 5854 5857 5860 5862 5865 5867 5869 5871 5874 5875 5876 5877 5878 5878 5879 5880 5881 5882 5882 5883 5883 5883 5883 5883 5883 5884 5883 5883 5883
5726 5728 5731 5732 5732 5733 5745 5765 5776 5789 5795 5797 5801 5807 5811 5818 5828 5834 5841 5846 5850 5852 5855 5859 5861 5864 5866 5868 5871 5872 5874 5874 5876 5878 5878 5879 5880 5880 5881 5882 5882 5882 5882 5882 5882 5883 5883 5883 5883
5715 5717 5720 5720 5721 5725 5739 5760 5776 5780 5786 5789 5793 5803 5807 5812 5822 5828 5835 5840 5845 5848 5851 5855 5858 5860 5863 5866 5868 5869 5871 5872 5874 5876 5877 5877 5878 5879 5880 5880 5881 5881 5881 5881 5881 5882 5882 5882 5882
5707 5708 5710 5708 5711 5725 5742 5758 5769 5769 5776 5781 5785 5788 5801 5809 5815 5821 5828 5834 5840 5843 5847 5850 5853 5856 5859 5862 5865 5866 5868 5869 5871 5873 5875 5876 5876 5877 5878 5878 5879 5879 5880 5880 5880 5881 5881 5881 5881
5697 5698 5697 5699 5706 5723 5738 5749 5755 5761 5770 5775 5774 5787 5797 5805 5811 5814 5821 5827 5833 5837 5842 5845 5849 5852 5855 5858 5861 5863 5864 5866 5868 5870 5872 5874 5874 5875 5876 5877 5877 5878 5879 5879 5879 5879 5879 5879 5879
5687 5689 5687 5690 5701 5720 5729 5739 5746 5751 5759 5765 5767 5781 5789 5797 5805 5807 5816 5820 5826 5830 5836 5840 5843 5847 5850 5854 5857 5859 5861 5862 5865 5866 5868 5871 5872 5872 5873 5875 5875 5876 5877 5878 5877 5877 5877 5878 5878
5679 5678 5682 5687 5699 5710 5722 5731 5736 5745 5753 5757 5768 5773 5776 5790 5796 5803 5809 5813 5817 5822 5828 5833 5838 5842 5846 5849 5852 5855 5857 5858 5861 5863 5864 5866 5869 5870 5871 5872 5873 5874 5875 5875 5876 5876 5875 5876 5877
5669 5669 5673 5678 5691 5704 5716 5719 5731 5736 5747 5753 5754 5761 5779 5787 5790 5796 5803 5799 5805 5815 5821 5827 5832 5836 5841 5844 5847 5849 5853 5854 5856 5858 5861 5862 5865 5868 5868 5869 5870 5871 5872 5873 5873 5873 5874 5874 5874
5658 5658 5663 5673 5685 5702 5709 5711 5721 5728 5736 5743 5751 5762 5770 5769 5775 5788 5798 5796 5802 5809 5815 5820 5825 5830 5835 5838 5841 5844 5848 5850 5852 5854 5856 5859 5860 5864 5865 5866 5868 5869 5869 5871 5871 5871 5872 5872 5872
5645 5650 5662 5675 5681 5692 5698 5704 5714 5718 5727 5734 5745 5755 5758 5760 5770 5781 5790 5790 5794 5803 5810 5814 5818 5823 5828 5832 5836 5839 5843 5846 5849 5850 5852 5854 5856 5859 5861 5863 5864 5865 5867 5867 5869 5869 5869 5870 5870
5634 5644 5659 5664 5670 5679 5687 5695 5700 5709 5716 5732 5742 5753 5754 5758 5766 5775 5782 5788 5791 5797 5801 5805 5810 5814 5820 5825 5829 5834 5837 5841 5844 5846 5848 5850 5851 5854 5857 5859 5860 5862 5863 5864 5865 5866 5866 5867 5867
5618 5634 5640 5653 5659 5666 5676 5687 5692 5701 5718 5727 5733 5743 5747 5757 5763 5769 5775 5778 5784 5788 5794 5798 5800 5805 5809 5816 5822 5827 5831 5835 5838 5841 5843 5846 5847 5849 5852 5854 5856 5857 5859 5860 5861 5862 5862 5863 5863
5601 5617 5626 5640 5647 5657 5667 5675 5685 5697 5708 5717 5726 5736 5742 5750 5756 5760 5768 5773 5777 5783 5783 5790 5793 5794 5800 5808 5815 5820 5825 5830 5833 5835 5838 5841 5843 5844 5847 5848 5850 5852 5854 5856 5856 5857 5858 5858 5859
5591 5600 5610 5623 5636 5647 5657 5671 5679 5694 5702 5711 5719 5734 5739 5746 5751 5755 5759 5763 5769 5776 5781 5787 5792 5789 5793 5802 5808 5813 5818 5823 5826 5830 5832 5835 5837 5839 5842 5844 5845 5847 5848 5850 5851 5852 5853 5853 5853
5579 5583 5594 5609 5627 5639 5651 5661 5675 5682 5696 5704 5715 5727 5735 5742 5747 5755 5755 5761 5768 5774 5778 5784 5788 5793 5793 5794 5803 5808 5812 5815 5819 5823 5825 5828 5831 5834 5837 5839 5840 5841 5843 5844 5845 5846 5847 5848 5848
5567 5571 5583 5603 5621 5634 5644 5661 5671 5677 5689 5699 5711 5720 5729 5737 5744 5750 5754 5756 5761 5770 5772 5779 5786 5790 5794 5797 5797 5801 5804 5811 5813 5818 5820 5823 5825 5828 5830 5832 5834 5836 5836 5837 5839 5840 5841 5842 5842
5562 5568 5582 5599 5617 5629 5642 5654 5667 5673 5683 5693 5705 5713 5721 5729 5736 5742 5747 5751 5755 5763 5769 5774 5780 5783 5791 5797 5799 5798 5800 5804 5809 5813 5815 5817 5819 5822 5824 5827 5828 5830 5829 5831 5832 5833 5834 5835 5836
5564 5572 5585 5599 5615 5625 5636 5641 5658 5670 5679 5689 5698 5705 5714 5723 5729 5733 5741 5748 5745 5752 5762 5768 5774 5777 5783 5787 5793 5795 5797 5802 5804 5806 5810 5813 5814 5816 5819 5821 5822 5824 5825 5825 5826 5827 5828 5828 5828
5570 5578 5591 5604 5616 5626 5635 5643 5656 5666 5674 5682 5693 5699 5707 5714 5723 5728 5736 5740 5748 5751 5755 5758 5765 5772 5778 5782 5787 5790 5793 5798 5801 5803 5804 5805 5808 5810 5813 5814 5815 5817 5818 5818 5819 5819 5819 5819 5819
5572 5582 5594 5606 5615 5625 5634 5641 5651 5659 5669 5678 5687 5697 5704 5712 5719 5724 5729 5737 5739 5745 5749 5754 5758 5766 5770 5775 5781 5783 5787 5791 5793 5795 5795 5799 5801 5802 5803 5805 5807 5809 5809 5809 5810 5811 5811 5811 5812
5577 5588 5600 5608 5616 5625 5635 5643 5650 5657 5667 5676 5683 5691 5700 5707 5715 5721 5727 5731 5736 5743 5745 5746 5752 5757 5761 5768 5773 5778 5781 5784 5787 5789 5790 5791 5792 5793 5795 5798 5799 5799 5799 5801 5801 5802 5803 5803 5804
5584 5595 5605 5611 5619 5627 5635 5642 5646 5652 5662 5671 5679 5687 5695 5704 5712 5718 5723 5730 5736 5738 5741 5744 5748 5754 5758 5761 5763 5767 5772 5774 5776 5778 5782 5784 5784 5785 5787 5789 5791 5792 5789 5790 5792 5793 5794 5794 5795
5591 5598 5606 5612 5620 5628 5636 5640 5644 5652 5661 5669 5674 5682 5690 5698 5705 5711 5719 5725 5729 5733 5737 5741 5744 5749 5754 5758 5759 5760 5763 5765 5769 5769 5770 5774 5776 5779 5781 5782 5783 5782 5780 5779 5780 5783 5784 5785 5786
5596 5603 5608 5617 5624 5631 5636 5641 5644 5652 5656 5667 5673 5679 5686 5693 5699 5705 5713 5718 5723 5728 5732 5735 5739 5742 5746 5749 5750 5752 5754 5755 5759 5762 5763 5767 5767 5770 5774 5774 5775 5770 5773 5772 5773 5775 5775 5777 5776
5603 5610 5614 5621 5626 5632 5637 5641 5645 5652 5655 5663 5668 5674 5682 5689 5694 5701 5707 5712 5717 5721 5725 5728 5732 5734 5737 5740 5743 5744 5746 5748 5749 5753 5755 5758 5759 5762 5763 5765 5765 5764 5764 5763 5763 5764 5766 5766 5765
5610 5615 5620 5625 5630 5637 5639 5642 5645 5651 5656 5660 5669 5672 5677 5683 5690 5696 5701 5705 5710 5715 5719 5723 5726 5728 5730 5731 5734 5736 5738 5741 5741 5744 5746 5747 5749 5750 5752 5753 5754 5755 5753 5753 5752 5753 5754 5754 5754
5614 5619 5624 5629 5633 5639 5642 5644 5647 5652 5657 5660 5663 5668 5676 5681 5687 5691 5695 5700 5704 5709 5713 5716 5718 5720 5723 5725 5726 5728 5731 5732 5733 5735 5736 5738 5739 5740 5741 5741 5742 5742 5742 5741 5741 5743 5743 5743 5742
5619 5623 5628 5630 5635 5639 5643 5645 5647 5651 5657 5661 5663 5668 5674 5678 5681 5685 5689 5692 5697 5701 5706 5710 5713 5715 5717 5718 5719 5719 5722 5724 5725 5726 5728 5730 5731 5730 5731 5731 5732 5732 5733 5732 5732 5732 5731 5731 5730
5622 5625 5630 5633 5636 5640 5643 5647 5650 5654 5656 5660 5664 5668 5672 5675 5677 5681 5683 5686 5690 5694 5698 5702 5705 5707 5709 5710 5712 5714 5715 5716 5717 5718 5719 5720 5720 5720 5720 5722 5723 5723 5723 5723 5722 5721 5720 5719 5718
5623 5627 5630 5635 5639 5642 5646 5650 5649 5654 5659 5662 5665 5667 5669 5672 5674 5677 5679 5682 5684 5687 5689 5691 5696 5699 5700 5701 5703 5705 5705 5707 5708 5708 5708 5709 5709 5710 5710 5711 5710 5710 5710 5711 5710 5710 5709 5708 5706